Temp_Advection
nan nan nan nan nan nan nan nan nan nan nan nan nan nan nan nan nan nan nan nan nan nan nan nan nan nan nan nan nan nan nan nan nan nan nan nan nan nan nan nan nan nan nan nan
nan 0 0 -0 -0 0 0 -0 -0 -0 0 -0 -0 0 0 -0 0 0 -0 0 0 0 0 0 -0 -0 -0 0 0 0 0 0 0 -0 -0 -0 -0 0 0 -0 -0 0 0 nan
nan -1 0 0 0 -0 -0 0 -0 0 0 1 -0 1 -1 -0 0 0 0 0 0 -0 0 -0 -0 -0 0 0 0 0 0 0 -0 0 0 -0 -0 -0 -0 -0 0 0 0 nan
nan 0 0 0 -0 0 -0 -0 0 0 3 -1 -7 -0 -0 1 -0 0 0 0 -0 0 0 -0 -0 0 0 0 0 0 0 0 -0 -0 -0 -0 0 0 -0 -0 -0 0 0 nan
nan -0 -0 -0 -1 0 0 -0 0 0 0 1 -1 0 -2 0 -1 -0 0 0 -0 0 0 0 0 0 0 0 0 0 0 -0 0 0 0 0 0 -0 0 0 0 0 -0 nan
nan -0 0 -0 -0 0 0 0 0 0 1 0 -0 -0 -0 -0 -0 -1 -0 0 0 0 0 0 0 0 0 0 0 0 0 0 0 0 0 0 0 -0 -0 0 -0 -0 0 nan
nan -0 -0 0 0 0 0 0 1 -0 0 -1 0 0 -0 -0 -1 -0 -0 0 0 0 0 0 0 -0 0 0 0 0 0 0 -0 -0 0 0 0 0 -0 -0 -0 -0 0 nan
nan -0 -1 -0 0 -0 -0 0 1 -0 -1 0 -0 0 0 -0 -1 -0 -0 -0 0 -0 0 0 0 0 0 0 0 0 0 0 0 0 0 0 -0 -0 -0 0 0 -0 -0 nan
nan -1 -1 0 -0 -0 0 -0 -0 1 0 0 0 -1 -0 0 -0 -0 -0 -0 -0 -0 0 -0 -0 -0 0 0 0 0 0 0 0 0 0 0 0 -0 0 0 -0 -0 -0 nan
nan -0 0 0 0 0 -0 0 0 0 1 -0 -0 -0 -0 0 -0 -0 -0 -0 -0 -0 -0 -0 -0 -0 -0 -0 -0 -0 -0 -0 -0 0 -0 0 -0 -0 0 0 -0 -0 -0 nan
nan 0 0 0 0 -0 -0 -0 -1 0 0 0 2 0 -2 -1 -1 -0 -0 -0 -1 -0 -0 -0 -0 -0 -0 -0 -0 -0 -0 -0 -0 -0 -0 -0 -0 -0 -0 0 -0 -0 -0 nan
nan 0 0 0 -1 -0 0 -0 0 0 1 -1 -1 -0 -0 -0 -1 -1 -0 -0 -0 -0 -0 -0 -0 -0 -0 -0 -0 -0 -0 -0 -0 -0 -0 -0 -0 -0 -0 0 -0 -0 -0 nan
nan 0 -0 -0 0 0 0 -0 -1 -0 1 -1 1 1 0 -0 -0 -1 -0 -0 -0 -0 -0 -0 -0 0 0 0 0 -0 -0 -0 -0 -0 -0 -0 -0 -0 -0 0 0 0 -0 nan
nan -0 0 -0 0 -0 -0 -1 0 0 1 -0 0 -1 0 -0 -0 -1 -0 -0 -0 -0 -0 -0 -0 0 0 0 0 0 0 -0 -0 -0 -0 -0 0 0 0 -0 0 0 0 nan
nan 0 -1 0 -0 -0 -0 0 0 0 0 0 1 0 0 -1 -0 -0 -0 0 -0 -0 -0 0 -0 -0 0 0 0 0 -0 -0 -0 -0 -0 -0 -0 0 -0 -0 -0 0 0 nan
nan -0 -0 -0 -0 0 0 -0 -0 0 0 0 0 -0 -1 -1 -0 -0 -0 -0 -0 -0 -0 0 0 0 -0 -0 -0 0 0 0 0 -0 -0 -0 -0 -0 -0 -1 -0 0 1 nan
nan 0 0 -0 -0 1 0 -1 -1 -0 0 0 1 0 -0 -0 0 0 0 -0 -0 -0 0 0 0 0 0 0 0 0 0 0 0 0 -0 -0 0 -0 -1 -1 -1 -0 -0 nan
nan 0 0 0 1 1 -1 -1 0 0 0 0 0 0 -0 -0 -0 0 0 -0 0 -0 0 0 0 0 1 0 0 -0 0 0 0 0 -0 -0 0 0 -0 -1 -1 -1 -0 nan
nan -0 0 1 1 -1 1 -1 1 0 -0 -0 0 0 -1 -0 0 -0 0 0 0 0 0 1 0 0 0 0 -0 -0 0 0 0 0 0 -0 0 0 0 -0 -0 -0 -0 nan
nan 0 0 0 0 2 0 -1 -13 -2 -0 -0 0 -0 -0 -0 -0 0 1 1 0 0 1 1 0 0 0 0 -0 0 0 0 0 -0 0 -0 0 0 -0 -0 -0 -0 -0 nan
nan 0 0 0 0 1 -2 -4 -7 -1 0 0 -0 -0 -0 -0 -1 0 0 1 1 1 1 1 1 0 0 0 0 0 0 0 0 0 -0 0 0 -0 -0 -0 -0 -0 -0 nan
nan -0 -0 0 1 -0 1 -1 0 -0 0 -0 -0 -0 -0 -0 -0 0 1 1 1 1 1 1 0 0 0 0 0 0 0 0 0 0 0 -0 -0 -0 0 0 -0 0 -0 nan
nan 0 -0 -0 0 0 -0 -0 -0 -0 -0 -0 -0 -1 -0 -0 -0 0 0 1 1 1 0 0 0 0 0 0 0 0 0 0 0 0 0 0 0 0 -0 -0 0 0 -0 nan
nan 0 -0 -0 0 -0 0 -0 -0 0 0 -0 -0 -0 -0 -0 -0 -0 -0 0 0 0 0 0 0 0 0 0 0 0 0 0 0 0 -0 -0 0 0 0 -0 0 1 -0 nan
nan -0 0 -0 0 -0 0 0 0 0 0 0 0 0 -0 -0 -0 -0 -0 -0 0 0 0 0 0 0 0 0 0 0 0 0 -0 -0 -0 -0 0 0 0 0 0 0 0 nan
nan nan nan nan nan nan nan nan nan nan nan nan nan nan nan nan nan nan nan nan nan nan nan nan nan nan nan nan nan nan nan nan nan nan nan nan nan nan nan nan nan nan nan nan
Wind_Speed
19 15 16 11 12 13 11 7 5 4 6 6 9 3 13 14 14 13 13 11 9 8 6 7 7 9 11 11 11 12 13 16 12 10 8 8 7 7 7 6 8 7 8 8
15 16 4 1 2 7 4 11 7 4 3 8 6 8 8 13 14 15 16 11 9 10 10 8 9 11 14 14 13 13 13 12 12 9 8 8 7 7 7 7 7 8 8 10
21 18 14 9 8 12 14 8 7 3 6 9 10 11 9 12 12 11 9 12 10 11 11 9 9 11 13 13 13 14 13 12 12 11 8 7 8 9 6 8 8 9 8 9
13 11 9 10 12 11 5 7 3 8 11 11 34 3 22 17 11 9 11 10 11 9 9 9 10 11 12 12 13 14 14 13 12 13 11 11 11 9 11 4 7 7 6 10
15 20 17 13 15 11 4 6 7 8 14 7 10 7 13 12 11 10 10 11 10 10 10 9 10 11 9 12 11 12 13 14 13 13 13 10 9 8 9 10 14 7 12 13
20 16 16 12 16 13 7 10 10 11 14 11 5 3 4 9 4 12 10 10 8 8 7 8 10 10 8 9 11 11 11 13 12 12 11 11 7 6 7 8 12 8 11 12
19 22 11 11 16 6 11 17 11 9 4 12 5 3 10 10 11 10 14 13 11 9 9 9 10 10 8 7 9 9 9 9 7 9 11 8 7 6 5 7 6 10 9 13
17 18 21 18 17 17 15 19 11 9 11 3 8 1 8 12 15 13 13 14 12 12 10 9 9 8 7 6 6 7 7 8 9 11 13 8 9 9 7 8 11 10 11 10
15 16 21 22 19 21 17 13 19 17 15 7 6 16 13 14 15 14 13 11 13 14 13 11 10 10 10 11 8 6 5 9 11 9 9 9 8 6 8 12 10 8 10 12
7 10 18 20 22 22 18 8 12 9 11 8 4 3 4 13 15 15 15 16 18 17 15 15 14 13 12 11 11 10 8 5 5 3 1 1 1 5 8 6 9 10 10 13
17 13 14 18 14 17 14 14 14 17 9 6 10 2 11 13 15 14 17 19 20 20 18 16 15 14 12 12 10 9 6 5 3 1 1 2 3 5 6 8 9 11 12 12
19 11 16 18 21 21 9 10 17 11 17 7 15 11 6 5 16 18 20 20 20 18 18 17 15 14 13 11 9 8 6 4 2 3 4 5 6 7 6 9 9 13 14 14
17 11 12 18 13 9 10 14 16 15 11 12 13 9 8 7 6 20 21 20 21 19 19 18 17 14 13 11 9 7 5 3 3 4 4 5 6 6 8 9 10 11 13 13
14 19 14 15 14 16 19 19 13 16 11 4 5 5 16 11 7 17 20 24 22 22 22 21 18 15 12 9 7 5 2 2 4 4 4 5 6 8 9 11 12 13 14 13
14 16 19 13 7 6 15 12 10 11 15 16 9 6 9 11 8 12 21 22 24 25 24 22 20 17 13 9 6 3 1 2 4 4 5 8 10 11 12 12 13 13 12 12
17 16 19 19 18 11 12 12 13 11 12 17 7 14 16 10 8 15 23 25 26 26 24 22 19 16 14 10 7 5 1 3 4 4 4 8 9 10 10 13 13 12 11 11
16 14 11 14 17 12 16 16 19 15 16 12 11 9 3 8 4 12 20 25 26 25 25 23 21 18 15 11 9 5 3 6 6 7 6 8 9 9 13 13 13 12 12 12
13 13 7 13 17 23 12 19 11 18 14 8 6 7 6 6 1 8 16 23 25 25 25 23 21 18 15 12 8 6 5 6 6 5 7 7 9 9 10 13 13 12 12 14
12 14 10 12 14 20 7 6 12 9 10 5 11 2 8 4 4 7 13 20 22 22 23 21 19 17 14 12 9 6 6 6 6 6 7 11 10 9 10 11 12 13 11 11
7 2 7 8 11 15 2 9 50 15 7 4 1 1 0 6 9 3 17 18 20 21 20 20 19 17 14 11 7 6 5 5 5 7 10 10 8 8 9 10 10 11 10 8
8 8 9 10 6 17 12 28 43 13 3 6 7 7 2 2 7 5 10 14 17 18 19 18 17 14 12 9 7 4 4 4 6 7 8 7 6 6 8 8 10 13 10 10
7 5 8 10 12 11 12 9 6 8 7 7 9 6 6 7 5 6 9 13 15 18 18 19 16 14 11 9 5 4 4 5 5 5 6 6 6 6 7 9 10 11 9 9
5 4 4 5 7 5 7 9 8 4 8 6 7 9 10 10 10 10 12 13 14 15 16 16 14 12 9 6 4 5 5 5 5 5 6 7 8 7 8 7 9 9 10 10
11 2 3 7 5 4 2 5 3 3 6 6 8 10 11 12 12 13 13 14 14 14 14 13 12 10 7 6 5 5 5 5 5 5 7 6 7 7 8 7 6 10 8 8
9 8 3 5 3 0 3 1 4 5 7 10 11 12 14 14 13 12 12 12 12 13 12 11 10 8 7 7 6 5 5 5 4 6 6 6 6 8 8 7 7 7 10 10
6 4 2 5 8 3 5 5 4 7 10 12 14 14 13 12 11 10 9 10 11 11 11 10 8 7 7 6 6 6 7 6 6 6 6 6 7 7 8 8 9 13 13 16
Wind_Direction
209 233 227 289 57 145 262 14 293 107 90 276 262 284 148 183 199 204 219 205 206 220 219 216 216 216 207 192 192 191 194 205 192 197 210 223 237 231 234 231 234 248 239 244
210 242 19 351 14 280 246 243 218 112 201 236 208 245 157 181 204 207 194 200 218 214 214 211 209 213 213 204 205 201 200 205 195 204 207 216 226 242 230 235 233 234 250 249
236 207 182 205 198 246 243 273 31 291 196 231 286 223 336 179 196 207 200 197 217 221 220 201 199 197 207 201 202 202 201 207 207 207 211 226 225 242 239 247 257 251 240 257
223 198 214 205 243 258 85 315 250 265 259 108 258 172 207 167 173 186 192 209 216 215 199 201 184 186 198 200 203 205 206 205 213 212 213 224 238 240 254 252 265 243 265 266
210 238 184 242 231 263 322 314 288 246 268 300 210 265 148 145 158 173 181 194 199 187 183 181 184 180 198 196 198 207 206 204 202 218 210 232 249 265 269 260 258 277 271 280
259 224 244 224 229 252 304 269 242 238 248 259 151 27 137 153 77 128 159 186 168 169 174 173 177 168 180 193 195 188 213 215 217 220 221 222 233 257 277 277 266 279 288 288
220 247 241 251 225 193 221 244 230 298 227 290 92 318 82 90 97 145 166 170 165 157 161 153 173 172 170 177 188 195 196 191 208 211 218 224 227 254 287 301 289 271 282 273
215 211 225 216 231 205 220 249 268 214 290 85 184 225 106 113 130 137 155 169 177 168 163 147 144 161 177 182 191 191 201 209 223 216 213 218 241 261 270 285 266 303 282 285
207 227 192 217 206 243 236 224 275 301 284 240 245 107 107 129 146 154 151 155 164 158 159 139 137 138 141 157 176 188 182 209 205 221 220 231 250 264 260 269 299 298 300 277
252 222 186 194 198 220 265 328 235 226 258 280 296 82 39 166 162 165 157 159 153 153 145 143 137 133 129 125 123 123 123 123 115 118 108 279 305 274 272 297 300 294 302 298
252 249 162 174 204 199 207 242 254 279 262 276 252 200 224 174 165 168 165 160 157 151 151 146 140 133 130 127 122 114 110 105 81 89 334 311 304 312 323 314 309 309 307 304
229 227 171 190 206 232 284 260 231 226 234 30 318 143 146 117 153 158 163 162 159 158 157 153 148 142 138 132 128 121 114 87 63 13 0 342 330 336 324 318 320 311 310 312
215 241 202 192 174 209 239 247 267 272 259 181 201 128 98 113 128 151 163 170 159 167 161 159 154 152 146 141 135 124 103 108 39 10 343 325 341 340 337 330 328 326 323 323
237 234 251 187 205 197 205 235 213 272 275 39 34 281 164 117 115 147 163 171 169 175 169 167 163 160 158 156 147 135 118 41 354 351 341 329 330 327 327 323 323 324 326 332
236 235 252 255 243 263 191 205 219 245 286 299 307 6 325 77 135 169 167 174 175 180 178 176 173 170 170 169 166 158 122 351 347 341 339 323 325 326 328 326 323 325 332 329
213 242 233 256 237 200 254 251 274 253 246 267 299 293 64 87 141 173 177 180 183 184 184 180 181 182 180 181 178 185 261 315 323 322 321 321 323 331 324 314 323 323 322 329
216 232 218 242 238 230 232 248 264 251 257 240 260 81 36 144 177 197 190 183 187 189 188 185 188 187 186 186 188 189 240 296 311 318 319 321 323 328 314 329 332 331 328 330
207 218 218 240 222 221 235 248 246 247 251 225 290 301 97 6 134 217 198 183 190 190 190 189 189 187 185 184 181 208 272 303 308 312 313 315 309 314 332 323 336 339 323 336
190 189 225 233 176 236 170 2 249 238 268 306 293 151 127 133 236 190 202 190 192 192 191 190 188 185 180 179 204 245 284 291 304 305 306 304 312 319 326 328 328 327 332 327
226 281 286 247 295 258 134 22 318 331 253 54 282 308 131 161 242 163 183 184 184 187 187 185 183 182 180 181 207 256 283 283 290 288 293 298 302 308 315 320 318 311 313 344
189 224 255 279 234 234 160 200 215 231 57 88 88 74 94 110 48 90 169 179 181 178 175 177 177 179 180 181 187 213 235 262 264 288 289 297 299 314 313 315 313 308 318 328
209 279 250 254 271 279 91 161 233 105 111 88 77 76 90 103 105 122 154 167 166 163 167 171 172 177 180 183 197 208 235 243 270 275 289 294 285 282 266 281 300 309 317 335
250 325 3 340 348 39 39 60 93 55 115 98 96 89 112 120 122 126 138 150 157 163 166 171 174 178 181 189 201 222 228 246 256 265 272 286 297 301 299 315 313 332 319 320
215 100 291 330 64 82 156 100 83 102 104 111 113 124 131 130 131 131 136 146 155 165 170 174 180 185 194 206 225 213 231 250 261 268 270 279 288 283 301 305 303 296 312 307
92 242 113 273 257 26 113 128 139 131 134 129 133 138 136 136 136 139 145 156 165 170 173 182 188 200 212 218 221 220 235 247 259 266 270 277 298 288 289 298 275 288 302 333
287 310 301 40 25 47 54 133 152 159 155 152 145 140 139 141 142 147 157 170 178 179 183 188 198 212 218 225 228 230 230 238 241 256 274 270 277 281 287 293 300 301 311 322
Height
1496 1490 1487 1482 1478 1486 1489 1488 1493 1486 1490 1496 1491 1491 1496 1507 1511 1513 1518 1520 1524 1528 1530 1531 1534 1537 1540 1542 1546 1549 1551 1552 1555 1556 1559 1560 1561 1561 1562 1562 1562 1562 1563 1563
1489 1493 1485 1487 1488 1489 1488 1490 1487 1488 1490 1494 1488 1494 1492 1501 1505 1508 1514 1518 1523 1526 1528 1531 1533 1535 1537 1541 1547 1549 1551 1552 1554 1557 1558 1559 1560 1560 1560 1560 1561 1562 1561 1560
1487 1482 1487 1490 1489 1493 1484 1483 1489 1493 1489 1493 1493 1496 1506 1497 1502 1505 1510 1516 1521 1522 1525 1528 1531 1534 1537 1540 1546 1548 1550 1552 1553 1556 1557 1558 1558 1559 1559 1559 1559 1558 1559 1559
1482 1480 1491 1490 1493 1484 1497 1487 1488 1490 1496 1553 1509 1511 1515 1488 1498 1506 1511 1518 1520 1521 1525 1528 1529 1533 1537 1540 1544 1547 1548 1551 1552 1553 1555 1556 1556 1556 1556 1556 1558 1558 1558 1558
1485 1480 1486 1492 1488 1482 1488 1487 1486 1486 1487 1486 1481 1488 1494 1489 1495 1503 1509 1515 1517 1520 1523 1527 1529 1533 1536 1540 1543 1545 1546 1548 1550 1551 1550 1555 1555 1556 1556 1555 1554 1554 1555 1554
1477 1476 1477 1484 1485 1484 1486 1489 1486 1483 1480 1493 1482 1487 1484 1495 1485 1496 1509 1514 1517 1521 1524 1527 1530 1534 1537 1540 1543 1545 1545 1546 1547 1549 1551 1552 1552 1554 1553 1552 1552 1552 1552 1552
1483 1481 1481 1481 1484 1484 1490 1489 1502 1518 1509 1505 1470 1487 1485 1482 1489 1499 1508 1514 1518 1523 1525 1528 1531 1534 1537 1540 1542 1544 1544 1545 1547 1547 1549 1550 1552 1552 1551 1551 1551 1550 1550 1548
1491 1498 1479 1481 1484 1487 1488 1483 1495 1539 1506 1497 1473 1491 1487 1483 1494 1502 1507 1513 1518 1522 1525 1528 1531 1534 1537 1540 1543 1543 1544 1546 1548 1547 1547 1548 1549 1550 1550 1550 1548 1548 1546 1545
1474 1482 1466 1475 1481 1478 1478 1489 1469 1478 1465 1479 1470 1472 1481 1486 1493 1500 1506 1513 1517 1521 1525 1529 1532 1533 1536 1537 1539 1542 1544 1544 1546 1545 1546 1546 1546 1546 1546 1545 1544 1544 1543 1541
1462 1481 1459 1470 1473 1475 1473 1470 1484 1479 1505 1504 1477 1484 1488 1495 1494 1496 1504 1510 1516 1521 1526 1531 1534 1537 1539 1541 1543 1544 1546 1547 1546 1545 1546 1545 1544 1543 1542 1542 1541 1540 1539 1538
1462 1460 1471 1471 1478 1478 1480 1484 1478 1469 1480 1486 1489 1530 1493 1487 1488 1494 1501 1508 1515 1521 1527 1532 1535 1538 1541 1542 1544 1545 1546 1546 1546 1545 1544 1543 1542 1542 1541 1539 1537 1536 1535 1534
1464 1457 1471 1474 1465 1461 1461 1464 1463 1480 1487 1500 1499 1507 1474 1475 1478 1491 1499 1509 1516 1523 1528 1532 1536 1539 1541 1543 1545 1545 1546 1546 1545 1542 1542 1542 1540 1539 1539 1536 1535 1532 1531 1529
1462 1466 1471 1474 1465 1465 1471 1466 1461 1452 1453 1485 1508 1487 1469 1476 1477 1485 1496 1509 1516 1523 1528 1532 1535 1539 1542 1543 1545 1545 1545 1543 1544 1542 1541 1540 1539 1538 1536 1534 1532 1530 1528 1526
1463 1457 1454 1467 1465 1458 1473 1464 1458 1460 1469 1476 1505 1473 1470 1473 1478 1485 1497 1507 1515 1522 1526 1530 1533 1538 1541 1542 1542 1542 1542 1541 1541 1540 1540 1538 1536 1534 1532 1530 1528 1527 1525 1524
1461 1467 1453 1447 1461 1451 1453 1458 1461 1466 1463 1471 1464 1468 1464 1467 1478 1487 1497 1505 1513 1519 1524 1529 1532 1535 1538 1540 1541 1541 1541 1540 1539 1538 1538 1536 1532 1530 1529 1527 1525 1524 1523 1522
1460 1464 1456 1459 1449 1456 1462 1458 1458 1458 1463 1463 1463 1467 1461 1472 1478 1485 1493 1502 1510 1516 1522 1527 1531 1534 1536 1538 1539 1540 1540 1539 1538 1537 1536 1533 1531 1529 1528 1525 1523 1522 1521 1521
1455 1456 1460 1469 1455 1457 1474 1462 1457 1453 1452 1455 1470 1465 1469 1475 1480 1483 1489 1498 1506 1514 1519 1523 1528 1532 1534 1536 1538 1538 1537 1537 1536 1534 1533 1532 1530 1529 1525 1522 1521 1520 1518 1517
1451 1455 1454 1463 1457 1479 1450 1440 1443 1445 1447 1449 1455 1457 1467 1474 1478 1483 1486 1494 1502 1509 1515 1520 1525 1529 1531 1534 1535 1535 1535 1534 1534 1533 1532 1530 1527 1526 1523 1521 1520 1519 1518 1515
1438 1445 1456 1462 1468 1459 1445 1451 1453 1453 1456 1450 1454 1457 1465 1479 1481 1483 1486 1491 1500 1506 1513 1518 1523 1527 1528 1530 1530 1532 1532 1532 1531 1531 1530 1527 1525 1523 1522 1522 1521 1519 1517 1516
1436 1439 1453 1446 1465 1478 1470 1473 1467 1450 1467 1453 1460 1462 1466 1477 1479 1471 1485 1491 1497 1504 1511 1516 1521 1524 1526 1527 1528 1529 1530 1530 1530 1529 1527 1525 1523 1523 1522 1521 1521 1519 1515 1514
1453 1455 1461 1459 1468 1467 1457 1466 1467 1476 1474 1466 1466 1469 1473 1478 1486 1488 1489 1494 1498 1503 1509 1515 1519 1523 1525 1526 1528 1528 1529 1529 1528 1526 1524 1522 1522 1522 1522 1521 1520 1516 1513 1512
1461 1463 1458 1455 1466 1474 1451 1457 1463 1469 1471 1472 1472 1475 1478 1485 1488 1491 1493 1497 1500 1505 1510 1515 1519 1522 1524 1525 1525 1526 1527 1526 1525 1524 1523 1522 1521 1520 1521 1518 1517 1514 1512 1512
1461 1451 1465 1463 1468 1456 1456 1456 1463 1466 1470 1472 1475 1478 1483 1487 1491 1494 1497 1500 1504 1508 1512 1515 1518 1521 1522 1522 1523 1524 1524 1523 1523 1522 1523 1522 1519 1517 1516 1515 1515 1514 1514 1513
1457 1454 1456 1459 1457 1456 1464 1463 1467 1470 1471 1475 1477 1481 1485 1490 1494 1497 1500 1503 1506 1509 1512 1515 1517 1519 1520 1520 1520 1521 1521 1520 1520 1521 1521 1520 1518 1518 1516 1515 1516 1514 1512 1512
1453 1457 1454 1457 1457 1462 1464 1467 1471 1474 1475 1478 1482 1485 1488 1492 1495 1498 1502 1504 1507 1509 1512 1515 1517 1518 1519 1519 1519 1519 1519 1518 1518 1520 1520 1519 1518 1516 1516 1515 1514 1513 1510 1508
1449 1451 1457 1462 1467 1469 1470 1472 1475 1477 1479 1482 1484 1488 1490 1493 1496 1499 1502 1505 1507 1509 1512 1514 1515 1516 1517 1516 1516 1517 1517 1517 1518 1519 1519 1518 1516 1516 1515 1513 1512 1509 1508 1506